GRL107 BGGH-KEWR

Flight info

Callsign GRL107
Flight time N/A
Altitude 38000
Route AMABI1A AMABI DCT IRBIM/N0464F380 DCT YBC DCT HANAA FLOSI4
Aircraft A339/H-SADE1E2E3GHIJ3J5M1P2RWXY/LB2D1

Departure

Time N/A
Airport Nuuk International Airport (BGGH)

Arrival

Time 2026-04-24 18:59
Airport Newark Liberty International Airport (KEWR)
Time Latitude Longitude Altitude Speed Heading
2026-04-24 17:04 64.18493 -51.67852 286 ft 0 kts 110°
2026-04-24 17:09 64.18500 -51.67891 286 ft 0 kts 110°
2026-04-24 17:10 64.18504 -51.67916 286 ft 2 kts 96°
2026-04-24 17:10 64.18484 -51.68002 286 ft 2 kts 26°
2026-04-24 17:11 64.18476 -51.68010 286 ft 0 kts 19°
2026-04-24 17:12 64.18484 -51.68003 286 ft 3 kts 19°
2026-04-24 18:54 40.55078 -74.25460 2672 ft 157 kts 22°
2026-04-24 18:55 40.56977 -74.24286 2318 ft 142 kts 23°
2026-04-24 18:55 40.57859 -74.23726 2150 ft 141 kts 24°
2026-04-24 18:55 40.58740 -74.23164 1984 ft 141 kts 24°
2026-04-24 18:56 40.59622 -74.22601 1811 ft 140 kts 24°
2026-04-24 18:56 40.60496 -74.22042 1635 ft 140 kts 24°
2026-04-24 18:56 40.61373 -74.21483 1457 ft 139 kts 25°
2026-04-24 18:56 40.62251 -74.20924 1274 ft 139 kts 25°
2026-04-24 18:57 40.63123 -74.20370 1087 ft 139 kts 26°
2026-04-24 18:57 40.63983 -74.19823 906 ft 138 kts 26°
2026-04-24 18:57 40.64861 -74.19266 726 ft 138 kts 26°
2026-04-24 18:57 40.65718 -74.18722 552 ft 137 kts 27°
2026-04-24 18:58 40.66583 -74.18172 352 ft 137 kts 28°
2026-04-24 18:58 40.67445 -74.17626 172 ft 137 kts 28°
2026-04-24 18:58 40.68303 -74.17083 39 ft 136 kts 28°
2026-04-24 18:58 40.69060 -74.16599 36 ft 96 kts 28°
2026-04-24 18:59 40.69491 -74.16323 36 ft 37 kts 24°
2026-04-24 18:59 40.69673 -74.16296 36 ft 18 kts 356°
2026-04-24 18:59 40.69730 -74.16363 36 ft 9 kts 258°
2026-04-24 18:59 40.69683 -74.16422 36 ft 10 kts 210°
2026-04-24 19:00 40.69604 -74.16471 36 ft 14 kts 205°
2026-04-24 19:00 40.69509 -74.16531 36 ft 15 kts 205°
2026-04-24 19:00 40.69408 -74.16597 36 ft 16 kts 206°
2026-04-24 19:00 40.69295 -74.16668 36 ft 19 kts 206°
2026-04-24 19:01 40.69170 -74.16748 36 ft 20 kts 205°
2026-04-24 19:01 40.69044 -74.16827 36 ft 19 kts 206°
2026-04-24 19:01 40.68922 -74.16905 36 ft 19 kts 206°
2026-04-24 19:01 40.68798 -74.16983 36 ft 19 kts 206°
2026-04-24 19:02 40.68717 -74.17036 36 ft 19 kts 206°
2026-04-24 19:02 40.68549 -74.17142 36 ft 20 kts 206°
2026-04-24 19:02 40.68424 -74.17222 36 ft 20 kts 206°
2026-04-24 19:02 40.68297 -74.17302 36 ft 20 kts 206°
2026-04-24 19:03 40.68179 -74.17378 36 ft 15 kts 211°
2026-04-24 19:03 40.68157 -74.17482 36 ft 13 kts 291°
2026-04-24 19:03 40.68203 -74.17603 36 ft 15 kts 301°
2026-04-24 19:03 40.68285 -74.17694 36 ft 14 kts 314°
2026-04-24 19:04 40.68336 -74.17812 36 ft 15 kts 295°
2026-04-24 19:04 40.68384 -74.17945 36 ft 16 kts 296°
2026-04-24 19:04 40.68420 -74.18070 36 ft 11 kts 269°
2026-04-24 19:04 40.68405 -74.18155 36 ft 5 kts 257°
2026-04-24 19:05 40.68402 -74.18174 36 ft 1 kts 257°
2026-04-24 19:05 40.68400 -74.18186 36 ft 0 kts 257°